118  
ASUS44 KHUN 291710  
RWRHUN  
 
WEATHER ROUNDUP FOR THE TENNESSEE VALLEY  
NATIONAL WEATHER SERVICE HUNTSVILLE AL  
1200 PM CDT MON MAY 29 2017  
 
ALZ001>004-291800-  
NORTHWEST ALABAMA  
 
CITY SKY/WX TMP DP RH WIND PRES REMARKS
 
COURTLAND HCN N/A 75 N/A N/A S3 N/A  
RUSSELLVILLE N/A 77 N/A N/A MISG N/A  
SHOALS AIRPORT CLOUDY 78 66 66 CALM 30.05F  
SHOALS TVA RES N/A 75 N/A N/A MISG N/A  

 
 
ALZ005>007-016-291800-  
NORTH CENTRAL ALABAMA  
 
CITY SKY/WX TMP DP RH WIND PRES REMARKS
 
CULLMAN AG STN N/A 75 N/A N/A CALM N/A  
DECATUR AP CLOUDY 79 65 62 VRB5 30.05F  
HUNTSVILLE AP PTSUNNY 77 68 73 VRB3 30.04F  
MERIDIANVILLE CLOUDY 73 66 78 CALM 30.06F  
REDSTONE ARSN PTSUNNY 77 68 73 S7 30.03F  
VINEMONT AP FAIR 74 65 71 CALM 30.08F  

 
 
ALZ008>010-291800-  
NORTHEAST ALABAMA  
 
CITY SKY/WX TMP DP RH WIND PRES REMARKS
 
ALBERTVILLE CLOUDY 73 72 94 S5 30.07S  
FORT PAYNE CLOUDY 73 63 68 W3 30.07S  
SCOTTSBORO AP CLOUDY 75 68 78 CALM 30.07F  
SCOTTSBORO HCN N/A 73 N/A N/A MISG N/A  
VALLEY HEAD N/A 72 N/A N/A MISG N/A  

 
 
TNZ076-096-097-291800-  
SOUTHEASTERN MIDDLE TENNESSEE  
 
CITY SKY/WX TMP DP RH WIND PRES REMARKS
 
TULLAHOMA PTSUNNY 72 64 78 S5 30.08S  
WINCHESTER PTSUNNY 72 66 83 S3 N/A  

 
   
..SURROUNDING SITES
 
 
 
CITY SKY/WX TMP DP RH WIND PRES REMARKS
 
ATLANTA PTSUNNY 83 68 60 W9 30.05S  
ANNISTON LGT RAIN 77 69 76 W7 30.06S  
BIRMINGHAM CLOUDY 79 66 64 S9 30.08R  
CHATTANOOGA LGT RAIN 74 67 78 W5 30.08R  
CORINTH FAIR 77 66 69 CALM 30.03F  
DALTON CLOUDY 75 66 73 CALM 30.07R  
GADSDEN CLOUDY 75 69 81 N3 30.06F  
GOLDEN TRNGL MOSUNNY 79 64 61 W5 30.01S  
HALEYVILLE CLOUDY 78 68 71 S5 30.08S  
JACKSON TN SUNNY 81 64 56 SW5 30.04R  
MEMPHIS PTSUNNY 82 60 47 NE6 30.04R  
NASHVILLE PTSUNNY 78 61 55 S5 30.04F  
OXFORD MS PTSUNNY 73 64 73 S6 30.07S  
ROME PTSUNNY 77 69 76 W6 30.06R  
SAVANNAH CLOUDY 77 70 78 VRB5 30.03F  
SELMER PTSUNNY 77 68 73 VRB5 30.04F  
TUPELO CLOUDY 77 66 68 S8 30.05S  
TUSCALOOSA CLOUDY 80 68 66 NW6 30.05R  

 
   
..GULF COAST WEATHER
 
 
 
CITY SKY/WX TMP DP RH WIND PRES REMARKS
 
GULFPORT CLOUDY 82 70 66 NW8 30.05R  
PASCAGOULA CLOUDY 84 69 60 VRB5 30.05S  
MOBILE CLOUDY 81 72 74 S8 30.06S  
GULF SHORES PTSUNNY 83 76 79 SW7 30.05F HX 90  
PENSACOLA CLOUDY 84 72 67 SW10 30.06S  
DESTIN CLOUDY 85 79 82 SW10G17 30.05F HX 98  
PANAMA CITY PTSUNNY 84 75 74 W9 30.09R HX 92  
APPALACHICOLA MOSUNNY 88 76 67 W16 30.08R HX 99  

 
 
 
 
CLICK HERE TO GO TO PREVIOUS BULLETINS.

The Nexlab AL Page
The Nexlab TN Page Main Text Page